Simultaneous Nadir Overpasses (SNOs) Predictions

Prediction of SNOs between GOES-17 and AQUA Satellite Orbit:

Table of predicted SNOs for the next 14.0 days since TLE Epoch: 8/23/2019
Index Date Time (GOES-17) GOES-17 Lat,Lon AQUA Lat,Lon Distance(km) Time Diff (sec)
1 08/23/2019 22:58:01 0.03,-137.21 -0.72,-140.87 415.54 80
2 08/25/2019 22:45:49 0.04,-137.21 -0.14,-137.91 80.08 80
3 08/27/2019 22:36:19 0.04,-137.20 0.51,-134.95 254.65 80
4 08/28/2019 10:57:34 -0.04,-137.19 0.56,-140.12 332.34 80
5 08/30/2019 10:42:42 -0.04,-137.17 -0.03,-137.15 2.72 80
6 09/01/2019 10:30:31 -0.04,-137.15 -0.69,-134.20 335.64 80
7 09/01/2019 22:51:55 0.04,-137.15 -0.43,-139.39 255.30 80
8 09/03/2019 22:42:23 0.04,-137.12 0.17,-136.43 78.01 80
9 09/05/2019 22:30:12 0.05,-137.09 0.83,-133.48 410.59 80
10 09/06/2019 10:51:27 -0.05,-137.08 0.29,-138.63 176.78 80




NCC Satellite Simultaneous Nadir Overpasses (SNOs) Prediction Service
